FW6531 Weather Reports


Display with metric or nautical units.
time (UTC)temp
F
wind
direction
speed
MPH
gust
MPH
rain 1hr
in
rain 24hr
in
rain mn
in
humidity
%
barometer
mb
20260510231039 52 156 2.0 5.0 0.00 0.31 0.16 93 1011.5
20260510230539 52 155 2.0 5.0 0.00 0.31 0.16 93 1011.4
20260510230040 52 166 2.0 5.0 0.00 0.35 0.16 93 1011.2
20260510225538 52 168 2.0 5.0 0.00 0.35 0.16 93 1011.3
20260510225040 52 128 1.0 3.0 0.00 0.35 0.16 93 1011.3
20260510224539 52 127 2.0 4.0 0.00 0.35 0.16 93 1011.2
20260510224037 52 124 3.0 5.0 0.00 0.35 0.16 93 1011.1
20260510223537 52 153 2.0 5.0 0.00 0.35 0.16 93 1011.1
20260510223038 52 155 1.0 3.0 0.00 0.35 0.16 93 1010.9
20260510222537 52 153 1.0 5.0 0.00 0.35 0.16 92 1011.0
20260510222041 52 152 2.0 5.0 0.00 0.35 0.16 92 1011.2
20260510221542 52 155 1.0 3.0 0.00 0.35 0.16 92 1011.2
20260510221036 52 154 0.0 3.0 0.00 0.35 0.16 92 1011.1
20260510220536 52 154 1.0 3.0 0.00 0.35 0.16 92 1011.2
20260510220036 52 155 1.0 5.0 0.00 0.40 0.16 92 1011.1
20260510215535 53 166 1.0 5.0 0.00 0.40 0.16 92 1011.2
20260510215035 53 135 1.0 4.0 0.01 0.40 0.16 92 1011.2
20260510214535 53 147 1.0 5.0 0.01 0.40 0.16 92 1011.2
20260510214035 53 84 2.0 5.0 0.01 0.40 0.16 92 1011.3
20260510213535 53 109 2.0 4.0 0.01 0.40 0.16 92 1011.1
20260510213037 53 117 1.0 5.0 0.01 0.40 0.16 92 1011.1
20260510212534 53 142 2.0 5.0 0.02 0.40 0.16 92 1011.3
20260510212035 53 130 2.0 5.0 0.08 0.40 0.16 92 1011.2
20260510211541 54 136 1.0 6.0 0.11 0.40 0.16 92 1011.1
20260510211034 54 98 3.0 5.0 0.11 0.40 0.16 92 1011.1
20260510210532 54 123 3.0 6.0 0.11 0.40 0.16 92 1011.1
20260510210033 54 92 0.0 4.0 0.11 0.42 0.16 92 1011.1
20260510205533 54 14 0.0 3.0 0.10 0.41 0.15 92 1011.2
20260510205033 53 355 1.0 3.0 0.10 0.41 0.15 92 1011.3
20260510204537 53 304 0.0 3.0 0.10 0.41 0.15 92 1011.4
20260510204033 53 302 1.0 3.0 0.10 0.41 0.15 91 1011.5
20260510203531 53 304 0.0 3.0 0.10 0.41 0.15 91 1011.5
20260510203032 53 304 1.0 4.0 0.10 0.41 0.15 90 1011.4
20260510202533 53 258 1.0 7.0 0.08 0.39 0.13 90 1011.8
20260510202034 53 270 1.0 7.0 0.02 0.33 0.07 89 1011.8
20260510201531 53 198 2.0 5.0 0.00 0.31 0.05 88 1011.8
20260510201033 53 154 1.0 3.0 0.00 0.31 0.05 88 1011.1
20260510200530 53 157 2.0 3.0 0.00 0.31 0.05 87 1011.1
20260510200033 53 157 0.0 5.0 0.00 0.39 0.05 87 1011.1
20260510195530 54 167 3.0 6.0 0.00 0.39 0.05 86 1011.2
20260510195033 54 157 2.0 5.0 0.00 0.39 0.05 85 1011.2
20260510194537 54 117 1.0 9.0 0.00 0.39 0.05 85 1011.1
20260510194029 55 144 3.0 11.0 0.00 0.39 0.05 85 1011.1
20260510193529 55 164 6.0 12.0 0.00 0.39 0.05 84 1010.9
20260510193030 55 95 6.0 12.0 0.00 0.39 0.05 85 1010.9
20260510192528 56 135 3.0 9.0 0.00 0.39 0.05 86 1010.8
20260510192028 55 149 2.0 9.0 0.00 0.39 0.05 86 1010.7
20260510191532 55 156 4.0 10.0 0.00 0.39 0.05 85 1010.9
20260510191028 55 129 4.0 12.0 0.00 0.39 0.05 85 1011.2
20260510190527 55 171 3.0 10.0 0.00 0.39 0.05 84 1011.2
20260510190041 55 171 4.0 10.0 0.00 0.49 0.05 83 1011.1
20260510185527 56 161 4.0 10.0 0.00 0.49 0.05 82 1011.2
20260510185026 57 169 5.0 9.0 0.00 0.49 0.05 81 1011.4
20260510184526 57 157 4.0 9.0 0.00 0.49 0.05 81 1011.3
20260510184026 58 170 5.0 10.0 0.00 0.49 0.05 80 1011.3
20260510183529 58 157 1.0 9.0 0.00 0.49 0.05 82 1011.5
20260510183025 58 154 3.0 9.0 0.00 0.49 0.05 82 1011.4
20260510182525 58 134 3.0 11.0 0.00 0.49 0.05 81 1011.5
20260510182025 58 142 2.0 11.0 0.00 0.49 0.05 80 1011.7
20260510181525 58 168 4.0 8.0 0.00 0.49 0.05 82 1011.7
20260510181025 58 175 5.0 9.0 0.00 0.49 0.05 80 1011.8
20260510180524 58 150 3.0 8.0 0.00 0.49 0.05 82 1011.9
20260510180023 58 162 1.0 8.0 0.00 0.52 0.05 83 1011.9
20260510175523 57 142 3.0 8.0 0.00 0.52 0.05 84 1012.0
20260510175023 57 143 2.0 7.0 0.00 0.52 0.05 85 1011.9
20260510174523 56 110 1.0 9.0 0.00 0.52 0.05 85 1011.8
20260510174024 56 183 4.0 8.0 0.00 0.52 0.05 84 1011.8
20260510173526 56 132 4.0 8.0 0.00 0.52 0.05 84 1011.9
20260510173025 56 161 2.0 8.0 0.00 0.52 0.05 84 1011.8
20260510172522 56 151 3.0 8.0 0.00 0.52 0.05 83 1011.7
20260510172021 56 104 4.0 8.0 0.00 0.52 0.05 83 1011.7
20260510171522 56 201 3.0 8.0 0.00 0.52 0.05 83 1011.7
20260510171020 56 123 3.0 5.0 0.00 0.52 0.05 83 1011.7
20260510170527 56 78 2.0 5.0 0.00 0.52 0.05 84 1011.7
20260510170020 56 90 2.0 7.0 0.00 0.52 0.05 83 1011.6
20260510165520 56 144 1.0 8.0 0.00 0.52 0.05 83 1011.8
20260510165020 56 215 5.0 8.0 0.00 0.52 0.05 82 1011.8
20260510164520 57 187 4.0 9.0 0.00 0.52 0.05 81 1011.8
20260510164019 57 140 5.0 9.0 0.00 0.52 0.05 81 1011.9
20260510163519 58 200 4.0 7.0 0.00 0.52 0.05 82 1011.9
20260510163017 58 126 2.0 6.0 0.00 0.52 0.05 84 1011.9
20260510162519 57 207 2.0 9.0 0.00 0.52 0.05 85 1011.9
20260510162015 57 92 5.0 12.0 0.00 0.52 0.05 83 1011.9
20260510161515 57 160 5.0 9.0 0.00 0.52 0.05 84 1011.9
20260510161015 57 205 4.0 10.0 0.00 0.52 0.05 85 1012.0
20260510160514 56 140 4.0 10.0 0.00 0.52 0.05 85 1012.0
20260510160014 56 144 4.0 9.0 0.00 0.52 0.05 85 1012.0
20260510155513 56 202 3.0 11.0 0.00 0.52 0.05 85 1012.1
20260510155013 56 171 6.0 11.0 0.00 0.52 0.05 84 1012.1
20260510154513 56 123 2.0 9.0 0.00 0.52 0.05 84 1012.1
20260510154014 57 235 5.0 9.0 0.00 0.52 0.05 85 1012.1
20260510153511 57 115 2.0 9.0 0.00 0.52 0.05 86 1012.1
20260510153011 57 167 5.0 9.0 0.00 0.52 0.05 86 1012.1
20260510152510 56 134 4.0 8.0 0.00 0.52 0.05 86 1012.2
20260510152009 56 190 4.0 8.0 0.00 0.52 0.05 87 1012.2
20260510151508 56 138 2.0 7.0 0.00 0.52 0.05 89 1012.1
20260510151008 56 140 3.0 9.0 0.00 0.52 0.05 89 1012.1
20260510150510 56 187 3.0 11.0 0.00 0.52 0.05 90 1012.1
20260510150007 56 121 6.0 11.0 0.00 0.52 0.05 90 1012.1
20260510145507 55 198 4.0 9.0 0.00 0.52 0.05 91 1012.2
20260510145004 55 187 2.0 7.0 0.00 0.52 0.05 93 1012.3
20260510144503 54 115 3.0 6.0 0.00 0.52 0.05 93 1012.3
20260510144002 54 129 3.0 8.0 0.00 0.52 0.05 93 1012.2
20260510143504 53 159 4.0 10.0 0.00 0.52 0.05 94 1012.4
20260510143109 53 161 5.0 10.0 0.00 0.52 0.05 94 1012.4
20260510142559 53 159 3.0 6.0 0.00 0.52 0.05 94 1012.3
20260510142058 53 104 2.0 10.0 0.00 0.52 0.05 94 1012.4
20260510141601 52 107 2.0 10.0 0.00 0.52 0.05 94 1012.5
20260510141057 52 175 2.0 6.0 0.00 0.52 0.05 95 1012.4
20260510140556 52 155 2.0 7.0 0.00 0.52 0.05 95 1012.2
20260510140057 52 132 3.0 8.0 0.00 0.52 0.05 95 1012.1
20260510135556 52 149 3.0 9.0 0.00 0.52 0.05 95 1012.1
20260510135056 52 127 2.0 9.0 0.00 0.52 0.05 95 1012.2
20260510134558 52 138 2.0 5.0 0.00 0.52 0.05 96 1012.4
20260510134059 52 150 1.0 5.0 0.00 0.52 0.05 96 1012.3
20260510133554 52 187 2.0 5.0 0.00 0.52 0.05 96 1012.3
20260510133054 52 146 1.0 5.0 0.00 0.52 0.05 96 1012.2
20260510132556 52 134 2.0 6.0 0.00 0.52 0.05 96 1012.1
20260510132058 52 186 0.0 7.0 0.00 0.52 0.05 96 1012.3
20260510131557 52 177 1.0 7.0 0.00 0.52 0.05 96 1012.4
20260510131053 52 200 3.0 6.0 0.00 0.52 0.05 96 1012.2
20260510130556 52 192 2.0 8.0 0.00 0.52 0.05 96 1012.3
20260510130051 51 134 2.0 6.0 0.00 0.52 0.05 96 1012.4
20260510125550 51 211 3.0 6.0 0.00 0.52 0.05 96 1012.5
20260510125051 51 215 3.0 5.0 0.00 0.52 0.05 97 1012.5
20260510124558 51 243 0.0 4.0 0.00 0.52 0.05 97 1012.4
20260510124050 51 196 1.0 6.0 0.00 0.52 0.05 96 1012.4
20260510123547 51 198 1.0 6.0 0.00 0.52 0.05 97 1012.1
20260510123048 51 161 0.0 5.0 0.00 0.52 0.05 97 1012.2
20260510122545 51 152 1.0 6.0 0.00 0.52 0.05 97 1012.3
20260510122045 51 194 2.0 6.0 0.00 0.52 0.05 97 1011.9
20260510121545 51 202 2.0 5.0 0.00 0.52 0.05 96 1012.1
20260510121047 51 197 2.0 4.0 0.00 0.52 0.05 97 1012.2
20260510120543 51 176 2.0 5.0 0.00 0.52 0.05 97 1012.0
20260510120043 50 199 1.0 3.0 0.00 0.52 0.05 97 1012.0
20260510115542 50 205 1.0 3.0 0.00 0.52 0.05 97 1011.9
20260510115041 50 219 1.0 5.0 0.00 0.52 0.05 97 1011.9
20260510114545 50 220 1.0 5.0 0.00 0.52 0.05 97 1011.7
20260510114040 50 244 3.0 6.0 0.00 0.52 0.05 97 1012.0
20260510113538 49 220 2.0 6.0 0.00 0.52 0.05 96 1011.9
20260510113038 49 226 2.0 8.0 0.00 0.52 0.05 96 1011.9
20260510112536 49 232 3.0 9.0 0.00 0.52 0.05 96 1011.9
20260510112036 49 209 2.0 9.0 0.00 0.52 0.05 96 1011.5
20260510111536 49 193 2.0 10.0 0.00 0.52 0.05 96 1011.3
20260510111034 49 238 3.0 9.0 0.00 0.52 0.05 96 1011.3
20260510110535 49 162 4.0 9.0 0.00 0.52 0.05 96 1011.2
20260510110036 49 157 3.0 7.0 0.00 0.52 0.05 96 1011.2
20260510105534 49 142 2.0 11.0 0.00 0.52 0.05 96 1011.1
20260510105037 49 165 5.0 11.0 0.00 0.52 0.05 96 1011.1
20260510104533 48 157 3.0 9.0 0.00 0.52 0.05 96 1011.0
20260510104031 48 158 2.0 9.0 0.00 0.52 0.05 96 1011.0
20260510103530 48 149 2.0 5.0 0.00 0.52 0.05 96 1011.2
20260510103031 48 158 2.0 5.0 0.00 0.52 0.05 96 1010.9
20260510102530 48 222 1.0 5.0 0.00 0.52 0.05 96 1010.9
20260510102033 48 188 1.0 4.0 0.00 0.52 0.05 96 1010.8
20260510101530 48 176 1.0 3.0 0.00 0.52 0.05 96 1011.0
20260510101030 48 177 1.0 5.0 0.00 0.52 0.05 96 1011.1
20260510100532 48 164 1.0 5.0 0.00 0.52 0.05 96 1011.1
20260510100041 48 127 1.0 3.0 0.00 0.52 0.05 96 1010.9
20260510095526 48 155 0.0 3.0 0.00 0.52 0.05 96 1011.0
20260510095032 48 155 0.0 3.0 0.00 0.52 0.05 96 1011.2
20260510094540 48 154 1.0 3.0 0.00 0.52 0.05 96 1011.0
20260510094025 48 156 1.0 4.0 0.00 0.52 0.05 96 1010.9
20260510093525 48 194 1.0 4.0 0.00 0.52 0.05 96 1010.9
20260510093025 48 194 1.0 3.0 0.00 0.52 0.05 96 1011.0
20260510092525 48 191 0.0 2.0 0.00 0.52 0.05 96 1011.0
20260510092025 48 191 0.0 3.0 0.00 0.52 0.05 96 1011.0
20260510091525 48 192 0.0 3.0 0.00 0.52 0.05 96 1011.0
20260510091023 48 185 0.0 2.0 0.00 0.52 0.05 96 1011.0
20260510090524 48 182 0.0 4.0 0.00 0.52 0.05 96 1010.8
20260510090025 48 182 1.0 4.0 0.00 0.52 0.05 96 1011.0
20260510085523 48 148 1.0 3.0 0.00 0.52 0.05 96 1010.9
20260510085026 48 148 1.0 3.0 0.00 0.52 0.05 96 1010.6
20260510084525 47 115 0.0 2.0 0.00 0.52 0.05 96 1010.6
20260510084024 47 115 0.0 1.0 0.00 0.52 0.05 96 1010.8
20260510083522 47 115 0.0 1.0 0.00 0.52 0.05 96 1011.0
20260510083026 47 115 0.0 2.0 0.00 0.52 0.05 96 1011.1
20260510082521 47 115 0.0 2.0 0.00 0.52 0.05 96 1011.0
20260510082022 47 115 0.0 1.0 0.00 0.52 0.05 96 1010.9
20260510081521 47 115 0.0 1.0 0.00 0.52 0.05 96 1011.0
20260510081021 47 115 0.0 1.0 0.00 0.52 0.05 96 1011.1
20260510080520 47 115 0.0 0.0 0.00 0.52 0.05 96 1011.1
20260510080027 47 115 0.0 1.0 0.00 0.52 0.05 96 1010.9
20260510075521 47 115 0.0 3.0 0.01 0.52 0.05 96 1010.8
20260510075020 47 115 1.0 3.0 0.01 0.52 0.05 96 1010.8
20260510074520 47 114 1.0 3.0 0.01 0.52 0.05 96 1010.7
20260510074019 47 113 0.0 3.0 0.02 0.52 0.05 96 1010.8
20260510073518 47 113 1.0 3.0 0.03 0.52 0.05 96 1010.8
20260510073018 47 116 0.0 3.0 0.04 0.52 0.05 96 1010.9
20260510072517 47 120 0.0 1.0 0.05 0.52 0.05 96 1010.9
20260510072017 47 120 0.0 1.0 0.05 0.52 0.05 96 1011.1
20260510071521 47 120 0.0 1.0 0.05 0.52 0.05 96 1011.1
20260510071017 47 120 0.0 1.0 0.05 0.52 0.05 96 1011.1
20260510070515 47 121 0.0 1.0 0.05 0.52 0.05 96 1011.1
20260510070015 47 121 0.0 1.0 0.05 0.52 0.05 96 1011.2
20260510065515 47 121 0.0 1.0 0.04 0.51 0.04 96 1011.2
20260510065019 47 121 0.0 2.0 0.04 0.51 0.04 96 1011.2
20260510064519 47 121 0.0 2.0 0.04 0.51 0.04 96 1011.4
20260510064013 47 119 0.0 2.0 0.03 0.50 0.03 96 1011.3
20260510063513 48 119 0.0 1.0 0.02 0.49 0.02 96 1011.4
20260510063013 48 119 0.0 2.0 0.01 0.48 0.01 96 1011.5
20260510062513 48 119 0.0 2.0 0.00 0.47 0.00 96 1011.4
20260510062019 48 119 0.0 1.0 0.00 0.47 0.00 96 1011.5
20260510061512 48 119 0.0 2.0 0.00 0.47 0.00 96 1011.5
20260510061012 48 119 0.0 2.0 0.00 0.47 0.00 96 1011.6
20260510060512 48 119 1.0 3.0 0.00 0.47 0.00 96 1011.6
20260510060011 48 120 0.0 3.0 0.00 0.47 0.00 96 1011.6
20260510055511 48 167 0.0 5.0 0.00 0.47 0.00 96 1011.7
20260510055011 48 192 1.0 9.0 0.00 0.47 0.00 96 1011.9
20260510054511 48 153 3.0 9.0 0.00 0.47 0.00 96 1011.9
20260510054011 48 125 1.0 9.0 0.00 0.47 0.00 96 1011.9
20260510053511 48 158 3.0 10.0 0.00 0.47 0.00 96 1012.0
20260510053009 48 133 1.0 7.0 0.00 0.47 0.00 96 1012.0
20260510052508 48 85 2.0 7.0 0.00 0.47 0.00 96 1011.9
20260510052008 48 183 1.0 7.0 0.00 0.47 0.00 96 1012.0
20260510051508 48 156 2.0 7.0 0.00 0.47 0.00 96 1011.9
20260510051007 48 121 3.0 7.0 0.00 0.47 0.00 96 1011.8
20260510050505 47 159 3.0 7.0 0.00 0.47 0.00 96 1011.7
20260510050005 47 186 3.0 8.0 0.00 0.47 0.00 96 1011.8
20260510045503 47 172 3.0 8.0 0.00 0.47 0.00 96 1011.8
20260510045003 47 131 2.0 7.0 0.00 0.47 0.00 96 1011.9
20260510044501 47 123 2.0 7.0 0.00 0.47 0.00 96 1011.9
20260510044100 47 101 1.0 4.0 0.00 0.47 0.00 96 1012.0
20260510043559 47 168 1.0 7.0 0.00 0.47 0.00 95 1012.0
20260510043110 46 171 3.0 7.0 0.00 0.47 0.00 95 1012.1
20260510042558 46 32 0.0 3.0 0.00 0.47 0.00 95 1012.1
20260510042100 46 32 1.0 3.0 0.00 0.47 0.00 95 1012.2
20260510041556 46 28 0.0 2.0 0.00 0.47 0.00 95 1012.2
20260510041056 46 28 0.0 3.0 0.00 0.47 0.00 95 1012.2
20260510040555 46 28 1.0 3.0 0.00 0.47 0.00 95 1012.2
20260510040100 46 27 0.0 2.0 0.00 0.47 0.47 95 1012.4
20260510035554 46 24 0.0 2.0 0.00 0.47 0.47 95 1012.4
20260510035054 46 22 0.0 3.0 0.00 0.47 0.47 95 1012.6
20260510034558 46 22 1.0 3.0 0.00 0.47 0.47 95 1012.6
20260510034054 46 22 0.0 2.0 0.00 0.47 0.47 95 1012.6
20260510033553 46 22 0.0 2.0 0.00 0.47 0.47 95 1012.5
20260510033130 46 22 0.0 1.0 0.00 0.47 0.47 95 1012.5
20260510032553 46 22 0.0 2.0 0.01 0.47 0.47 95 1012.6
20260510032053 46 22 0.0 2.0 0.01 0.47 0.47 95 1012.6
20260510031610 46 22 0.0 1.0 0.01 0.47 0.47 95 1012.6
20260510031053 46 22 0.0 2.0 0.01 0.47 0.47 95 1012.7
20260510030552 46 22 0.0 2.0 0.01 0.47 0.47 95 1012.5
20260510030058 46 24 1.0 2.0 0.01 0.47 0.47 95 1012.6
20260510025552 46 30 0.0 2.0 0.01 0.47 0.47 95 1012.7
20260510025053 46 31 1.0 2.0 0.01 0.47 0.47 95 1012.7
20260510024553 46 32 0.0 0.0 0.01 0.47 0.47 95 1012.7
20260510024056 45 32 0.0 1.0 0.01 0.47 0.47 95 1012.7
20260510023552 45 33 0.0 2.0 0.01 0.47 0.47 95 1012.7
20260510023052 45 34 0.0 1.0 0.01 0.47 0.47 95 1012.6
20260510022552 45 34 0.0 1.0 0.01 0.46 0.46 95 1012.7
20260510022054 45 34 0.0 1.0 0.01 0.46 0.46 95 1012.8
20260510021551 45 34 0.0 2.0 0.01 0.46 0.46 95 1012.8
20260510021051 45 34 0.0 2.0 0.01 0.46 0.46 95 1012.8
20260510020551 45 34 0.0 1.0 0.01 0.46 0.46 95 1012.7
20260510020052 45 34 0.0 2.0 0.01 0.46 0.46 95 1012.7
20260510015551 45 34 0.0 2.0 0.01 0.46 0.46 95 1012.7
20260510015050 45 32 0.0 1.0 0.02 0.46 0.46 95 1012.8
20260510014551 45 32 0.0 2.0 0.02 0.46 0.46 95 1012.8
20260510014050 45 32 1.0 3.0 0.02 0.46 0.46 94 1012.7
20260510013551 45 32 1.0 4.0 0.03 0.46 0.46 94 1012.8
20260510013050 45 35 0.0 3.0 0.03 0.46 0.46 95 1012.7
20260510012553 45 31 0.0 3.0 0.03 0.45 0.45 95 1012.8
20260510012050 45 35 1.0 4.0 0.04 0.45 0.45 95 1012.8
20260510011550 45 35 2.0 4.0 0.05 0.45 0.45 95 1012.8
20260510011050 45 29 1.0 5.0 0.06 0.45 0.45 94 1012.8
20260510010549 45 360 3.0 5.0 0.07 0.45 0.45 94 1012.9
20260510010049 45 323 1.0 4.0 0.08 0.45 0.45 94 1012.7
20260510005549 45 25 1.0 4.0 0.09 0.45 0.45 94 1012.6
20260510005049 45 23 0.0 4.0 0.08 0.44 0.44 94 1012.6
20260510004548 45 23 1.0 4.0 0.09 0.44 0.44 94 1012.7
20260510004048 45 26 2.0 4.0 0.09 0.44 0.44 94 1012.8
20260510003548 45 13 1.0 4.0 0.09 0.43 0.43 94 1012.8
20260510003047 45 18 2.0 6.0 0.09 0.43 0.43 94 1012.8
20260510002549 45 24 3.0 6.0 0.08 0.42 0.42 94 1013.0
20260510002048 45 348 1.0 3.0 0.07 0.41 0.41 94 1012.9
20260510001549 45 348 1.0 5.0 0.06 0.40 0.40 94 1013.1
20260510001046 45 341 2.0 5.0 0.05 0.38 0.38 94 1013.1
20260510000546 45 345 2.0 5.0 0.05 0.38 0.38 94 1013.0
20260509235545 44 57 1.0 5.0 0.04 0.36 0.36 93 1012.8
20260509235045 44 44 0.0 7.0 0.04 0.36 0.36 93 1012.7
20260509234555 44 97 1.0 7.0 0.03 0.35 0.35 93 1012.6
20260509234046 44 92 1.0 8.0 0.04 0.35 0.35 93 1012.6
20260509233544 44 105 2.0 8.0 0.03 0.34 0.34 93 1012.6
20260509233048 44 85 2.0 5.0 0.03 0.34 0.34 93 1012.6
20260509232545 44 88 2.0 7.0 0.04 0.34 0.34 93 1012.6
20260509232044 44 46 3.0 7.0 0.04 0.34 0.34 93 1012.7
20260509231546 44 78 2.0 10.0 0.05 0.34 0.34 93 1012.6